Location: ??
(34.7707°N, 135.6540°E)
Time: 21:11:53
(UTC+00:00)

Tiangong - Pass Details

Date: 04 October 2021
Orbit: 382 x 385 km, 41.5° (Epoch: 18 October)

Event Time Altitude Azimuth Distance (km) Brightness Sun altitude
Exits shadow 19:25:14 27° 351° (N) 781 2.6 -19.2°
Maximum altitude 19:25:47 28° 11° (NNE) 745 2.6 -19.1°
Drops below altitude 10° 19:28:34 10° 74° (ENE) 1,395 5.1 -18.5°
Sets 19:30:48 0° 86° (E) 2,245 6.7 -18.1°
